Weather in Masady

Russia / Republic of Tatarstan     55°50′06″N   53°49′29″E
temp.,
°C
wind,
m/s
gust,
m/s
humid.,
%
clouds,
%
prec.,
mm/h
press.,
hPa
HPBL,
m
29 july, thu
thu2900:00+12sw226571 0.0 101320
03:00+11wsw34735 0.0 101353
06:00+16wsw47532 0.0 1013247
09:00+23wsw563328 0.0 10121541
12:00+26w572838 0.0 10102507
15:00+27w572746 0.0 10092879
18:00+25w5837100 0.0 1008720
21:00+19w51159100 0.0 1008362
30 july, fri
fri3000:00+18s2567100 0.0 1007142
03:00+18s41070100 0.1 1005377
06:00+18sw6107699 0.3 1004602
09:00+19wsw5884100 1.0 1004781
12:00+23w6865100 0.1 10041222
15:00+26wnw8844100 0.2 10042038
18:00+25w4752100 0.0 1005893
21:00+21sw486594 0.0 1006183
31 july, sat
sat3100:00+21sw3566100 0.0 1006115
03:00+20ssw3768100 0.0 1006160
06:00+18n1297100 2.1 100790
09:00+23s5767100 2.9 1006750
12:00+30sw694258 0.1 10042085
15:00+28wsw61045100 0.2 10031297
18:00+27w71050100 0.0 10041029
21:00+21wsw357691 0.1 100686
1 august, sun
sun100:00+20sw367488 0.0 1006124
03:00+20wsw48660 0.0 1007237
06:00+21w48600 0.0 1009316
09:00+27w69361 0.0 10091845
12:00+29wnw893045 0.0 10092689
15:00+29wnw793168 0.0 10092864
18:00+27wnw573877 0.0 10101106
21:00+23wsw4105036 0.0 1011245
2 august, mon
mon200:00+20wsw376127 0.0 1011124
03:00+18wsw35688 0.0 101276
06:00+23wsw475131 0.0 1012269
09:00+29wsw563436 0.0 10121147
12:00+33wsw682681 0.0 10112492
15:00+34wsw682499 0.0 10103544
18:00+29nnw473656 0.1 1010218
21:00+24sse324899 0.1 101024